Location: Lombard
(41.8800°N, 88.0080°W)
Time: 23:54:28
(UTC-05:00)

Transit 2A - Pass Details

Date: 09 February 2023
Orbit: 591 x 964 km, 66.7° (Epoch: 20 March)

Event Time Altitude Azimuth Distance (km) Brightness Sun altitude
Rises 22:20:44 0° 338° (NNW) 3,482 9.9 -54.3°
Enters shadow 22:21:00 - 339° (NNW) 3,402 9.8 -54.4°
Reaches altitude 10° 22:24:01 10° 356° (N) 2,599 - -54.8°
Maximum altitude 22:28:11 19° 40° (NE) 2,093 - -55.3°
Drops below altitude 10° 22:32:29 10° 83° (E) 2,688 - -55.9°
Sets 22:35:56 0° 101° (E) 3,644 - -56.3°
